Location: Alma
(38.7220°N, 88.9090°W)
Time: 01:39:34
(UTC-06:00)

Vanguard 2 Rocket - Pass Details

Date: 20 November 2019
Orbit: 554 x 3326 km, 32.9° (Epoch: 08 December)

Event Time Altitude Azimuth Distance (km) Brightness Sun altitude
Rises 22:47:10 0° 210° (SSW) 2,925 - -67.8°
Reaches altitude 10° 22:51:03 10° 175° (S) 1,843 - -68.2°
Maximum altitude 22:52:25 11° 155° (SSE) 1,728 - -68.4°
Drops below altitude 10° 22:53:45 10° 134° (SE) 1,821 - -68.5°
Sets 22:57:31 0° 99° (E) 2,832 - -68.9°
